Regional Weather Roundup
Issued by NWS Sterling, VA

Home | Current Version | Previous Version | Graphics & Text | Print | Product List | Glossary On
Versions: 1 2 3 4 5 6 7 8 9 10 11 12 13 14 15 16 17 18 19 20 21 22 23 24 25 26 27
000
ASUS41 KLWX 170711
RWRLWX

REGIONAL WEATHER ROUNDUP
NATIONAL WEATHER SERVICE BALTIMORE MD/WASHINGTON DC
200 AM EST SUN DEC 17 2017

Note: "FAIR" indicates few or no clouds below 12,000 feet
with no significant weather and/or obstructions to visibility.
 TC=TEMPERATURE CELSIUS

 * =Non NWS site. Station does not report precipitation (e.g. rain,
    snow, etc.), thunder, or fog.

DCZ001-MDZ009-015-VAZ040>042-051-053>054-170800-
WASHINGTON METRO

CITY           SKY/WX    TMP DP  RH WIND       PRES   REMARKS
WASHINGTON NAT PTCLDY    32  26  78 CALM      30.23R
DULLES         PTCLDY    25  22  88 CALM      30.22R
ANDREWS AFB    CLEAR     27  22  82 CALM      30.21R
FT BELVOIR     CLEAR     26  22  87 CALM      30.22R
QUANTICO       CLEAR     29  25  85 NW6       30.24R
COLLEGE PARK*  CLEAR     25  23  92 CALM      30.22R
LEESBURG*      PTCLDY    27  25  93 CALM      30.23R
MANASSAS*      CLOUDY    21  19  92 CALM      30.23R
GAITHERSBURG*  CLEAR     26  22  84 CALM      30.21R

$$

MDZ006>007-011-014-170800-
BALTIMORE METRO

CITY           SKY/WX    TMP DP  RH WIND       PRES   REMARKS
BWI AIRPORT    PTCLDY    27  24  89 CALM      30.22R
MD SCIENCE CTR   N/A     36  27  69 MISG      30.21S
MARTIN STATE   CLEAR     28  28 100 CALM      30.23S
ANNAPOLIS      CLEAR     33  31  92 CALM      30.22R
FORT MEADE*    CLEAR     25  23  93 CALM      30.24R

$$

MDZ012-015-019>023-170800-
MARYLAND EASTERN SHORE

CITY           SKY/WX    TMP DP  RH WIND       PRES   REMARKS
OCEAN CITY     CLEAR     37  29  72 W6        30.24R
SALISBURY      CLEAR     29  29 100 CALM      30.23R
BAY BRIDGE AP* CLEAR     30  27  86 S3        30.22R
CAMBRIDGE*       N/A     28  27  93 CALM      30.23S
EASTON*        CLOUDY    30  25  82 CALM      30.26R

$$

MDZ017>025-170800-
SOUTHERN MARYLAND

CITY           SKY/WX    TMP DP  RH WIND       PRES   REMARKS
PATUXENT RIVER CLEAR     28  25  88 W5        30.23R
ST INIGOES     CLEAR     38  29  70 SW6       30.23R
LEONARDTOWN*   CLEAR     32  27  80 CALM      30.25R

$$

MDZ003>005-170800-
NORTH CENTRAL MARYLAND

CITY           SKY/WX    TMP DP  RH WIND       PRES   REMARKS
FREDERICK*     CLOUDY    27  27 100 CALM      30.24R
HAGERSTOWN APT CLOUDY    32  23  69 S5        30.19R
WESTMINSTER*   CLOUDY    36  25  64 SW3       30.18R

$$

MDZ501>502-170800-
WESTERN MARYLAND

CITY           SKY/WX    TMP DP  RH WIND       PRES   REMARKS
OAKLAND*       CLEAR     32  25  74 W12G21    30.09R WCI  23
CUMBERLAND*    CLEAR     28  27  93 CALM      30.23R

$$

VAZ025>031-170800-
SHENANDOAH VALLEY

CITY           SKY/WX    TMP DP  RH WIND       PRES   REMARKS
WINCHESTER*    CLOUDY    32  23  69 SW5       30.20R
FRONT ROYAL*   FAIR      30  23  74 CALM      30.20R
LURAY*         CLOUDY    28  25  86 S3        30.21R
NEW MARKET*    CLOUDY    23  20  89 CALM      30.20R
STAUNTON*      CLOUDY    25  19  80 CALM      30.22R
WAYNESBORO*    PTCLDY    40  23  51 SW8       30.19S

$$

WVZ021-048>050-054>055-170800-
EASTERN WEST VIRGINIA PANHANDLE

CITY           SKY/WX    TMP DP  RH WIND       PRES   REMARKS
MARTINSBURG    CLOUDY    25  20  81 S6        30.20R
PETERSBURG*    CLOUDY    27  22  82 E5        30.21R

$$

VAZ036>039-050-170800-
CENTRAL FOOTHILLS

CITY           SKY/WX    TMP DP  RH WIND       PRES   REMARKS
CHARLOTTESVILL CLOUDY    34  24  67 CALM      30.20R
CULPEPER*      FAIR      24  19  82 N3        30.23R
ORANGE*        PTCLDY    30  25  80 CALM      30.21R
GORDONSVILLE*  PTCLDY    30  26  83 SW3       30.21R
WARRENTON*     CLOUDY    22  17  81 CALM      30.22R

$$

VAZ055>057-170800-
NORTH AND CENTRAL PIEDMONT

CITY           SKY/WX    TMP DP  RH WIND       PRES   REMARKS
FREDERICKSBRG* CLEAR     28  25  89 CALM      30.23R
STAFFORD*      CLEAR     27  26  98 CALM      30.27R

$$

NCZ024-NYZ072-PAZ021-071-VAZ022-071-170800-
OTHER REGIONAL OBSERVATIONS

CITY           SKY/WX    TMP DP  RH WIND       PRES   REMARKS
NEW YORK CITY  CLOUDY    33  20  58 VRB3      30.25R
PHILADELPHIA   CLOUDY    36  28  73 W3        30.23R
PITTSBURGH     CLOUDY    38  27  64 SW6       30.15R
ROANOKE        CLOUDY    40  25  55 W10       30.25S
RICHMOND       CLOUDY    35  24  64 S3        30.23S
RALEIGH        CLOUDY    32  24  72 CALM      30.27R

$$

ANZ530>537-170800-
MARINE OBSERVATIONS

STATION/POSITION TIME  TEMP    WIND        PRES
                       AIR SEA DIR/SP/G
                 (UTC) (F)     (DEG/KT/KT) (MB)
THOMAS PT LIGHT  0600   39 44  250/  1/  1   N/A
BALT KEY BRIDGE  0642   36     200/  3/  4 1023.1R
COVE POINT       0642   41      90/  3/  3 1024.2R
LEWISETTA        0642   38 40  280/  2/  3 1023.6R
SOLOMONS ISLAND  0642   37 44  260/  2/  3 1023.4R
PINEY POINT      0642          270/  5/  6   N/A

$$





USA.gov is the U.S. government's official web portal to all federal, state and local government web resources and services.